Location: Prague
(50.0830°N, 14.4670°E)
Time: 11:20:27
(UTC+02:00)

RS-15 - Pass Details

Date: 09 April 2023
Orbit: 1885 x 2159 km, 64.8° (Epoch: 29 May)

Event Time Altitude Azimuth Distance (km) Brightness Sun altitude
Rises 21:35:50 0° 309° (NW) 5,671 12.3 -16.8°
Reaches altitude 10° 21:39:30 10° 314° (NW) 4,647 11.3 -17.3°
Maximum altitude 21:51:26 56° 32° (NNE) 2,380 8.4 -18.8°
Enters shadow 21:59:47 21° 103° (ESE) 3,642 8.9 -19.8°
